When you browse on this site, cookies collect data to enhance your experience and personalize the content and advertising you see.
Visit our Privacy Policy to learn more. By continuing to use the site, you agree to this use of cookies and data.
  • In Switzerland
  • List of Countries
  • For 7 days
  • Water Temperature
  • Weather Map
  • Weather Widgets
  • user-avatar
    Login

    Hourly Weather Springfield

    Today, 16 December, Monday

    Time Temperature Precipitation Wind Pressure Humidity
    00:00 -9°C° 0 mm 4 mps 739 mmHg 58%
    01:00 -9°C° 0 mm 4 mps 739 mmHg 57%
    02:00 -9°C° 0 mm 4 mps 740 mmHg 57%
    03:00 -8°C° 0 mm 3 mps 740 mmHg 57%
    04:00 -8°C° 0 mm 3 mps 740 mmHg 58%
    05:00 -8°C° 0 mm 3 mps 741 mmHg 58%
    06:00 -7°C° 0 mm 2 mps 741 mmHg 59%
    07:00 -7°C° 0 mm 2 mps 742 mmHg 60%
    08:00 -6°C° 0 mm 2 mps 742 mmHg 56%
    09:00 -6°C° 0 mm 2 mps 742 mmHg 52%
    10:00 -5°C° 0 mm 2 mps 742 mmHg 48%
    11:00 -4°C° 0 mm 2 mps 742 mmHg 46%
    12:00 -3°C° 0 mm 2 mps 742 mmHg 45%
    13:00 -3°C° 0 mm 2 mps 742 mmHg 43%
    14:00 -3°C° 0 mm 2 mps 742 mmHg 47%
    15:00 -2°C° 0 mm 1 mps 742 mmHg 51%
    16:00 -2°C° 0 mm 1 mps 742 mmHg 55%
    17:00 -3°C° 0 mm 1 mps 742 mmHg 58%
    18:00 -3°C° 0 mm 1 mps 742 mmHg 61%
    19:00 -5°C° 0 mm 0 mps 742 mmHg 63%
    20:00 -5°C° 0 mm 0 mps 741 mmHg 64%
    21:00 -4°C° 0 mm 0 mps 741 mmHg 64%
    22:00 -4°C° 0 mm 0 mps 740 mmHg 65%
    23:00 -4°C° 0 mm 0 mps 740 mmHg 65%

    Tomorrow, 17 December, Tuesday

    Time Temperature Precipitation Wind Pressure Humidity
    00:00 -4°C° 0 mm 0 mps 740 mmHg 65%
    01:00 -4°C° 0 mm 0 mps 740 mmHg 66%
    02:00 -4°C° 0 mm 0 mps 739 mmHg 68%
    03:00 -4°C° 0 mm 0 mps 738 mmHg 69%
    04:00 -4°C° 0 mm 0 mps 737 mmHg 71%
    05:00 -4°C° 0.1 mm 0 mps 737 mmHg 74%
    06:00 -4°C° 0.1 mm 0 mps 736 mmHg 77%
    07:00 -3°C° 0.1 mm 1 mps 736 mmHg 80%
    08:00 -3°C° 0.9 mm 1 mps 735 mmHg 83%
    09:00 -3°C° 0.9 mm 1 mps 734 mmHg 87%
    10:00 -2°C° 0.9 mm 1 mps 733 mmHg 90%
    11:00 -2°C° 1 mm 1 mps 732 mmHg 91%
    12:00 -2°C° 1 mm 1 mps 731 mmHg 92%
    13:00 -2°C° 1 mm 1 mps 730 mmHg 93%
    14:00 -2°C° 1.3 mm 1 mps 729 mmHg 94%
    15:00 -2°C° 1.3 mm 1 mps 728 mmHg 94%
    16:00 -3°C° 1.3 mm 1 mps 728 mmHg 95%
    17:00 -2°C° 1 mm 1 mps 728 mmHg 95%
    18:00 -2°C° 1 mm 1 mps 728 mmHg 95%
    19:00 -4°C° 1 mm 2 mps 728 mmHg 95%
    20:00 -5°C° 0.2 mm 2 mps 728 mmHg 95%
    21:00 -5°C° 0.2 mm 2 mps 728 mmHg 95%
    22:00 -6°C° 0.2 mm 2 mps 728 mmHg 94%
    23:00 -6°C° 0 mm 2 mps 728 mmHg 94%

    Day after tomorrow, 18 December, Wednesday

    Time Temperature Precipitation Wind Pressure Humidity
    00:00 -7°C° 0 mm 2 mps 729 mmHg 93%
    01:00 -7°C° 0 mm 2 mps 729 mmHg 93%
    02:00 -7°C° 0 mm 2 mps 729 mmHg 93%
    03:00 -7°C° 0 mm 1 mps 729 mmHg 93%
    04:00 -7°C° 0 mm 1 mps 730 mmHg 93%
    05:00 -8°C° 0 mm 1 mps 730 mmHg 93%
    06:00 -8°C° 0 mm 1 mps 730 mmHg 94%
    07:00 -9°C° 0 mm 1 mps 731 mmHg 94%
    08:00 -7°C° 0 mm 1 mps 730 mmHg 88%
    09:00 -6°C° 0 mm 2 mps 730 mmHg 83%
    10:00 -4°C° 0 mm 2 mps 730 mmHg 78%
    11:00 -5°C° 0 mm 3 mps 729 mmHg 75%
    12:00 -4°C° 0 mm 4 mps 729 mmHg 73%
    13:00 -4°C° 0 mm 5 mps 728 mmHg 71%
    14:00 -4°C° 0 mm 4 mps 728 mmHg 73%
    15:00 -5°C° 0 mm 4 mps 728 mmHg 74%
    16:00 -7°C° 0 mm 4 mps 728 mmHg 76%
    17:00 -9°C° 0.1 mm 4 mps 729 mmHg 75%
    18:00 -11°C° 0.1 mm 5 mps 730 mmHg 74%
    19:00 -13°C° 0.1 mm 5 mps 731 mmHg 72%
    20:00 -15°C° 0 mm 5 mps 731 mmHg 72%
    21:00 -17°C° 0 mm 5 mps 731 mmHg 72%
    22:00 -19°C° 0 mm 5 mps 732 mmHg 72%
    23:00 -20°C° 0 mm 6 mps 732 mmHg 73%

    19 December, Thursday

    Time Temperature Precipitation Wind Pressure Humidity
    00:00 -21°C° 0 mm 6 mps 733 mmHg 74%
    01:00 -22°C° 0 mm 6 mps 733 mmHg 75%
    02:00 -21°C° 0 mm 5 mps 734 mmHg 75%
    03:00 -21°C° 0 mm 5 mps 735 mmHg 76%
    04:00 -21°C° 0 mm 5 mps 736 mmHg 76%
    05:00 -20°C° 0 mm 4 mps 737 mmHg 78%
    06:00 -22°C° 0 mm 4 mps 738 mmHg 79%
    07:00 -22°C° 0 mm 4 mps 739 mmHg 81%
    08:00 -20°C° 0 mm 4 mps 740 mmHg 78%
    09:00 -20°C° 0 mm 5 mps 741 mmHg 74%
    10:00 -20°C° 0 mm 6 mps 741 mmHg 70%
    11:00 -20°C° 0 mm 6 mps 742 mmHg 69%
    12:00 -18°C° 0 mm 6 mps 742 mmHg 68%
    13:00 -17°C° 0 mm 5 mps 742 mmHg 67%
    14:00 -17°C° 0 mm 5 mps 743 mmHg 69%
    15:00 -16°C° 0 mm 4 mps 743 mmHg 72%
    16:00 -16°C° 0 mm 3 mps 743 mmHg 74%
    17:00 -16°C° 0 mm 3 mps 744 mmHg 77%
    18:00 -17°C° 0 mm 3 mps 745 mmHg 80%
    19:00 -17°C° 0 mm 2 mps 745 mmHg 83%
    20:00 -17°C° 0 mm 2 mps 745 mmHg 84%
    21:00 -17°C° 0 mm 2 mps 746 mmHg 86%
    22:00 -18°C° 0 mm 2 mps 746 mmHg 87%
    23:00 -18°C° 0 mm 2 mps 746 mmHg 88%

    20 December, Friday

    Time Temperature Precipitation Wind Pressure Humidity
    00:00 -16°C° 0 mm 1 mps 746 mmHg 89%
    01:00 -16°C° 0 mm 1 mps 746 mmHg 90%
    02:00 -16°C° 0 mm 1 mps 746 mmHg 90%
    03:00 -16°C° 0 mm 1 mps 746 mmHg 90%
    04:00 -17°C° 0 mm 1 mps 747 mmHg 90%
    05:00 -17°C° 0 mm 1 mps 747 mmHg 90%
    06:00 -17°C° 0 mm 1 mps 747 mmHg 90%
    07:00 -17°C° 0 mm 1 mps 748 mmHg 90%
    08:00 -15°C° 0 mm 1 mps 748 mmHg 84%
    09:00 -13°C° 0 mm 1 mps 748 mmHg 78%
    10:00 -11°C° 0 mm 1 mps 749 mmHg 72%
    11:00 -12°C° 0 mm 2 mps 748 mmHg 70%
    12:00 -10°C° 0 mm 2 mps 748 mmHg 68%
    13:00 -8°C° 0 mm 2 mps 748 mmHg 66%
    14:00 -9°C° 0 mm 2 mps 748 mmHg 71%
    15:00 -9°C° 0 mm 2 mps 748 mmHg 76%
    16:00 -9°C° 0 mm 1 mps 748 mmHg 81%
    17:00 -9°C° 0 mm 1 mps 748 mmHg 82%
    18:00 -10°C° 0 mm 1 mps 748 mmHg 83%
    19:00 -10°C° 0 mm 1 mps 748 mmHg 84%
    20:00 -10°C° 0 mm 0 mps 748 mmHg 84%
    21:00 -10°C° 0 mm 0 mps 748 mmHg 83%
    22:00 -10°C° 0 mm 0 mps 748 mmHg 83%
    23:00 -10°C° 0 mm 0 mps 748 mmHg 82%

    21 December, Saturday

    Time Temperature Precipitation Wind Pressure Humidity
    00:00 -10°C° 0 mm 0 mps 748 mmHg 82%
    01:00 -10°C° 0 mm 0 mps 747 mmHg 81%
    02:00 -9°C° 0 mm 0 mps 747 mmHg 82%
    03:00 -9°C° 0 mm 1 mps 747 mmHg 83%
    04:00 -9°C° 0 mm 1 mps 746 mmHg 83%
    05:00 -9°C° 0 mm 1 mps 746 mmHg 83%
    06:00 -9°C° 0 mm 1 mps 746 mmHg 84%
    07:00 -9°C° 0 mm 1 mps 746 mmHg 84%
    08:00 -8°C° 0.1 mm 1 mps 746 mmHg 83%
    09:00 -7°C° 0.1 mm 1 mps 746 mmHg 83%
    10:00 -7°C° 0.1 mm 1 mps 745 mmHg 82%
    11:00 -6°C° 0.2 mm 1 mps 745 mmHg 85%
    12:00 -4°C° 0.2 mm 1 mps 744 mmHg 87%
    13:00 -3°C° 0.2 mm 1 mps 743 mmHg 90%
    14:00 -3°C° 0.2 mm 1 mps 743 mmHg 92%
    15:00 -3°C° 0.2 mm 1 mps 742 mmHg 94%
    16:00 -3°C° 0.2 mm 1 mps 742 mmHg 96%
    17:00 -3°C° 0.2 mm 1 mps 741 mmHg 96%
    18:00 -3°C° 0.2 mm 1 mps 741 mmHg 97%
    19:00 -3°C° 0.2 mm 1 mps 740 mmHg 97%
    20:00 -3°C° 0.4 mm 1 mps 740 mmHg 97%
    21:00 -3°C° 0.4 mm 1 mps 739 mmHg 96%
    22:00 -3°C° 0.4 mm 1 mps 739 mmHg 96%
    23:00 -3°C° 0.8 mm 1 mps 738 mmHg 96%
    Show more